START_TIME,STEP,MOV.,M6,t_acc.,M7,t_acc.,M19,t_acc.,H36,t_acc.
1979-07-30 00:41:38.170 ,0,0,0.,12.0,0.,12.0,0.,12.0,0.,12.0
1979-07-30 00:41:50.170 ,0,0,0.,12.0,0.,12.0,0.,12.0,0.,12.0
1979-07-30 00:42:02.170 ,0,0,0.,12.0,0.,12.0,0.,12.0,0.,12.0
1979-07-30 00:42:14.170 ,0,0,0.,12.0,0.,12.0,0.,12.0,0.,12.0
1979-07-30 00:43:14.170 ,0,0,0.,12.0,0.,12.0,0.,12.0,0.,12.0
1979-07-30 00:43:26.170 ,0,0,0.,12.0,0.,12.0,0.,12.0,0.,12.0
1979-07-30 00:43:38.170 ,0,0,0.,12.0,0.,12.0,0.,12.0,0.,12.0
1979-07-30 00:43:50.170 ,0,0,0.,12.0,0.,12.0,0.,12.0,0.,12.0
1979-07-30 00:44:02.170 ,4,1,,0,,0,,0,,0
1979-07-30 00:44:14.170 ,4,1,0.,12.0,0.,12.0,0.,12.0,0.,12.0
1979-07-30 00:44:26.170 ,0,0,0.,12.0,0.,12.0,0.,12.0,0.,12.0
1979-07-30 00:44:38.170 ,0,0,0.,12.0,0.,12.0,0.,12.0,0.,12.0
1979-07-30 00:44:50.770 ,3,1,,0,,0,,0,,0
1979-07-30 00:45:02.770 ,3,1,0.,12.0,0.,12.0,0.,12.0,0.,12.0
1979-07-30 00:45:14.170 ,3,0,0.,12.0,0.,12.0,0.,12.0,0.,12.0
1979-07-30 00:45:26.170 ,3,0,0.,12.0,0.,12.0,0.,12.0,0.,12.0
1979-07-30 00:45:38.170 ,2,1,0.,12.0,0.,12.0,0.,12.0,0.,12.0
1979-07-30 00:45:50.170 ,2,1,0.,12.0,0.,12.0,0.,12.0,0.,12.0
1979-07-30 00:46:02.170 ,2,0,0.,12.0,0.,12.0,0.,12.0,0.,12.0
1979-07-30 00:46:14.170 ,2,0,0.,12.0,0.,12.0,0.,12.0,0.,12.0
1979-07-30 00:46:26.170 ,1,1,0.,12.0,0.,12.0,0.,12.0,0.,12.0
1979-07-30 00:46:38.170 ,1,1,0.,12.0,0.,12.0,0.,12.0,0.,12.0
1979-07-30 00:46:50.170 ,1,0,0.,12.0,0.,12.0,0.,12.0,0.,12.0
1979-07-30 00:47:02.170 ,1,0,0.,12.0,0.,12.0,0.,12.0,0.,12.0
1979-07-30 00:47:14.170 ,0,0,0.,12.0,0.,12.0,0.,12.0,1.,12.0
1979-07-30 00:47:26.170 ,0,0,0.,12.0,0.,12.0,0.,12.0,0.,12.0
1979-07-30 00:47:38.170 ,0,0,0.,12.0,0.,12.0,0.,12.0,0.,12.0
1979-07-30 00:47:50.170 ,0,0,0.,12.0,0.,12.0,0.,12.0,0.,12.0
1979-07-30 00:48:02.170 ,0,0,0.,12.0,0.,12.0,0.,12.0,0.,12.0
1979-07-30 00:48:14.170 ,0,0,0.,12.0,0.,12.0,0.,12.0,0.,12.0
1979-07-30 00:48:26.170 ,0,0,0.,12.0,0.,12.0,0.,12.0,0.,12.0
1979-07-30 00:48:38.170 ,0,0,0.,12.0,0.,12.0,0.,12.0,0.,12.0
1979-07-30 00:48:50.170 ,0,0,0.,12.0,0.,12.0,0.,12.0,0.,12.0
1979-07-30 00:49:02.170 ,0,0,,0,,0,,0,,0
1979-07-30 00:49:14.170 ,0,0,0.,12.0,0.,12.0,0.,12.0,0.,12.0
1979-07-30 00:49:26.170 ,0,0,,0,,0,,0,,0
1979-07-30 00:52:30.970 ,0,0,,0,,0,,0,,0
1979-07-30 00:52:42.970 ,0,0,,0,,0,,0,,0
1979-07-30 00:52:50.170 ,0,0,0.,12.0,0.,12.0,0.,12.0,0.,12.0
1979-07-30 00:53:02.170 ,0,0,,0,,0,,0,,0
1979-07-30 00:53:14.170 ,0,0,0.,12.0,0.,12.0,0.,12.0,0.,12.0
1979-07-30 00:53:26.170 ,0,0,,0,,0,,0,,0
1979-07-30 00:57:32.170 ,0,0,,0,,0,,0,,0
1979-07-30 00:57:44.170 ,0,0,,0,,0,,0,,0
1979-07-30 00:57:38.170 ,3,1,0.,12.0,0.,12.0,0.,12.0,0.,12.0
1979-07-30 00:57:50.170 ,3,1,0.,12.0,0.,12.0,0.,12.0,0.,12.0
1979-07-30 00:58:02.170 ,3,0,0.,12.0,0.,12.0,0.,12.0,0.,12.0
1979-07-30 00:58:14.170 ,3,0,0.,12.0,0.,12.0,0.,12.0,0.,12.0
1979-07-30 00:58:26.170 ,2,1,0.,12.0,0.,12.0,0.,12.0,0.,12.0
1979-07-30 00:58:38.170 ,2,1,0.,12.0,0.,12.0,0.,12.0,0.,12.0
1979-07-30 00:58:50.170 ,2,0,0.,12.0,0.,12.0,0.,12.0,0.,12.0
1979-07-30 00:59:02.170 ,2,0,0.,12.0,0.,12.0,0.,12.0,0.,12.0
1979-07-30 00:59:14.170 ,1,1,0.,12.0,0.,12.0,0.,12.0,0.,12.0
1979-07-30 00:59:26.170 ,1,1,0.,12.0,0.,12.0,0.,12.0,0.,12.0
1979-07-30 00:59:38.170 ,1,0,0.,12.0,0.,12.0,0.,12.0,0.,12.0
1979-07-30 00:59:50.170 ,1,0,0.,12.0,0.,12.0,0.,12.0,0.,12.0
1979-07-30 01:00:02.170 ,0,1,0.,12.0,0.,12.0,0.,12.0,0.,12.0
1979-07-30 01:00:14.170 ,0,1,0.,12.0,0.,12.0,0.,12.0,0.,12.0
1979-07-30 01:00:26.170 ,0,0,0.,12.0,0.,12.0,0.,12.0,0.,12.0
1979-07-30 01:00:38.170 ,0,0,0.,12.0,0.,12.0,0.,12.0,0.,12.0
1979-07-30 01:00:50.170 ,0,1,0.,12.0,0.,12.0,0.,12.0,0.,12.0
1979-07-30 01:01:02.170 ,0,1,0.,12.0,0.,12.0,0.,12.0,0.,12.0
1979-07-30 01:01:14.170 ,0,0,0.,12.0,0.,12.0,0.,12.0,0.,12.0
1979-07-30 01:01:26.170 ,0,0,0.,12.0,0.,12.0,0.,12.0,0.,12.0
1979-07-30 01:01:38.170 ,1,1,0.,12.0,0.,12.0,0.,12.0,0.,12.0
1979-07-30 01:01:50.170 ,1,1,0.,12.0,0.,12.0,0.,12.0,0.,12.0
1979-07-30 01:02:02.170 ,1,0,0.,12.0,0.,12.0,0.,12.0,0.,12.0
1979-07-30 01:02:14.170 ,1,0,0.,12.0,0.,12.0,0.,12.0,0.,12.0
1979-07-30 01:02:26.170 ,2,1,0.,12.0,0.,12.0,0.,12.0,0.,12.0
1979-07-30 01:02:38.170 ,2,1,0.,12.0,0.,12.0,0.,12.0,0.,12.0
1979-07-30 01:02:50.170 ,2,0,0.,12.0,0.,12.0,0.,12.0,0.,12.0
1979-07-30 01:03:02.170 ,2,0,0.,12.0,0.,12.0,0.,12.0,0.,12.0
1979-07-30 01:03:14.170 ,3,1,0.,12.0,0.,12.0,0.,12.0,0.,12.0
1979-07-30 01:03:26.170 ,3,1,0.,12.0,0.,12.0,0.,12.0,0.,12.0
1979-07-30 01:03:38.170 ,3,0,0.,12.0,0.,12.0,0.,12.0,0.,12.0
1979-07-30 01:03:50.170 ,3,0,0.,12.0,0.,12.0,0.,12.0,0.,12.0
1979-07-30 01:04:02.170 ,4,1,0.,12.0,0.,12.0,0.,12.0,0.,12.0
1979-07-30 01:04:14.170 ,4,1,0.,12.0,0.,12.0,0.,12.0,0.,12.0
1979-07-30 01:04:26.170 ,4,0,0.,12.0,0.,12.0,0.,12.0,0.,12.0
1979-07-30 01:04:38.170 ,4,0,0.,12.0,0.,12.0,0.,12.0,0.,12.0
1979-07-30 01:04:50.170 ,5,1,0.,12.0,0.,12.0,0.,12.0,0.,12.0
1979-07-30 01:05:02.170 ,5,1,0.,12.0,0.,12.0,0.,12.0,0.,12.0
1979-07-30 01:05:14.170 ,5,0,0.,12.0,0.,12.0,0.,12.0,0.,12.0
1979-07-30 01:05:26.170 ,5,0,0.,12.0,0.,12.0,0.,12.0,0.,12.0
1979-07-30 01:05:38.170 ,6,1,0.,12.0,0.,12.0,0.,12.0,0.,12.0
1979-07-30 01:05:50.170 ,6,1,0.,12.0,0.,12.0,0.,12.0,0.,12.0
1979-07-30 01:06:02.170 ,6,0,0.,12.0,0.,12.0,0.,12.0,0.,12.0
1979-07-30 01:06:14.170 ,6,0,0.,12.0,0.,12.0,0.,12.0,0.,12.0
1979-07-30 01:06:26.170 ,7,0,0.,12.0,0.,12.0,0.,12.0,0.,12.0
1979-07-30 01:06:38.170 ,7,0,0.,12.0,0.,12.0,0.,12.0,0.,12.0
1979-07-30 01:06:50.170 ,7,0,0.,12.0,0.,12.0,0.,12.0,0.,12.0
1979-07-30 01:07:02.170 ,7,0,0.,12.0,0.,12.0,0.,12.0,0.,12.0
1979-07-30 01:07:14.170 ,4,1,0.,12.0,0.,12.0,0.,12.0,0.,12.0
1979-07-30 01:07:26.170 ,4,1,0.,12.0,0.,12.0,0.,12.0,0.,12.0
1979-07-30 01:07:38.170 ,0,1,0.,12.0,0.,12.0,0.,12.0,0.,12.0
1979-07-30 01:07:50.170 ,0,1,0.,12.0,0.,12.0,0.,12.0,0.,12.0
1979-07-30 01:08:02.170 ,3,1,0.,12.0,0.,12.0,0.,12.0,0.,12.0
1979-07-30 01:08:14.170 ,3,1,0.,12.0,0.,12.0,0.,12.0,0.,12.0
1979-07-30 01:08:26.170 ,7,1,0.,12.0,0.,12.0,0.,12.0,0.,12.0
1979-07-30 01:08:38.170 ,7,1,0.,12.0,0.,12.0,0.,12.0,0.,12.0
1979-07-30 01:08:50.170 ,4,1,0.,12.0,0.,12.0,0.,12.0,0.,12.0
1979-07-30 01:09:02.170 ,4,1,0.,12.0,0.,12.0,0.,12.0,0.,12.0
1979-07-30 01:09:14.170 ,0,1,0.,12.0,0.,12.0,0.,12.0,0.,12.0
1979-07-30 01:09:26.170 ,0,1,0.,12.0,0.,12.0,0.,12.0,0.,12.0
1979-07-30 01:09:38.170 ,3,1,0.,12.0,0.,12.0,0.,12.0,0.,12.0
1979-07-30 01:09:50.170 ,3,1,0.,12.0,0.,12.0,0.,12.0,0.,12.0
1979-07-30 01:10:02.170 ,7,1,0.,12.0,0.,12.0,0.,12.0,0.,12.0
1979-07-30 01:10:14.170 ,7,1,0.,12.0,0.,12.0,0.,12.0,0.,12.0
1979-07-30 01:10:26.170 ,4,1,0.,12.0,0.,12.0,0.,12.0,0.,12.0
1979-07-30 01:10:38.170 ,4,1,0.,12.0,0.,12.0,0.,12.0,0.,12.0
1979-07-30 01:10:50.170 ,0,0,0.,12.0,0.,12.0,0.,12.0,0.,12.0
1979-07-30 01:11:02.170 ,0,0,0.,12.0,0.,12.0,0.,12.0,0.,12.0
1979-07-30 01:11:16.570 ,0,0,0.,12.0,0.,12.0,0.,12.0,0.,12.0
1979-07-30 01:11:28.570 ,0,0,0.,12.0,0.,12.0,0.,12.0,0.,12.0
1979-07-30 01:11:38.170 ,7,1,0.,12.0,0.,12.0,0.,12.0,0.,12.0
1979-07-30 01:11:50.170 ,7,1,0.,12.0,0.,12.0,0.,12.0,0.,12.0
1979-07-30 01:12:02.170 ,4,1,,0,,0,,0,,0
1979-07-30 01:12:14.170 ,4,1,0.,12.0,0.,12.0,0.,12.0,0.,12.0
1979-07-30 01:12:26.170 ,0,1,0.,12.0,0.,12.0,0.,12.0,0.,12.0
1979-07-30 01:12:38.170 ,0,1,0.,12.0,0.,12.0,0.,12.0,0.,12.0
1979-07-30 01:12:50.170 ,3,1,0.,12.0,0.,12.0,0.,12.0,0.,12.0
1979-07-30 01:13:02.170 ,3,1,0.,12.0,0.,12.0,0.,12.0,0.,12.0
1979-07-30 01:13:14.170 ,7,1,0.,12.0,0.,12.0,0.,12.0,0.,12.0
1979-07-30 01:13:26.170 ,7,1,0.,12.0,0.,12.0,0.,12.0,0.,12.0
1979-07-30 01:13:38.170 ,4,1,0.,12.0,0.,12.0,0.,12.0,0.,12.0
1979-07-30 01:13:50.170 ,4,1,0.,12.0,0.,12.0,0.,12.0,0.,12.0
1979-07-30 01:14:02.170 ,0,1,0.,12.0,0.,12.0,0.,12.0,0.,12.0
1979-07-30 01:14:14.170 ,0,1,0.,12.0,0.,12.0,0.,12.0,0.,12.0
1979-07-30 01:14:26.170 ,3,1,0.,12.0,0.,12.0,0.,12.0,0.,12.0
1979-07-30 01:14:38.170 ,3,1,0.,12.0,0.,12.0,0.,12.0,0.,12.0
1979-07-30 01:14:50.170 ,7,1,0.,12.0,0.,12.0,0.,12.0,0.,12.0
1979-07-30 01:15:02.170 ,7,1,0.,12.0,0.,12.0,0.,12.0,0.,12.0
1979-07-30 01:15:14.170 ,4,1,0.,12.0,0.,12.0,0.,12.0,0.,12.0
1979-07-30 01:15:26.170 ,4,1,0.,12.0,0.,12.0,0.,12.0,0.,12.0
1979-07-30 01:15:38.170 ,0,1,0.,12.0,0.,12.0,0.,12.0,0.,12.0
1979-07-30 01:15:50.170 ,0,1,0.,12.0,0.,12.0,0.,12.0,0.,12.0
1979-07-30 01:16:02.170 ,3,1,0.,12.0,0.,12.0,0.,12.0,0.,12.0
1979-07-30 01:16:14.170 ,3,1,0.,12.0,0.,12.0,0.,12.0,0.,12.0
1979-07-30 01:16:26.170 ,7,1,0.,12.0,0.,12.0,0.,12.0,0.,12.0
1979-07-30 01:16:38.170 ,7,1,0.,12.0,0.,12.0,0.,12.0,0.,12.0
1979-07-30 01:16:50.170 ,4,1,0.,12.0,0.,12.0,0.,12.0,0.,12.0
1979-07-30 01:17:02.170 ,4,1,0.,12.0,0.,12.0,0.,12.0,0.,12.0
1979-07-30 01:17:14.170 ,0,1,0.,12.0,0.,12.0,0.,12.0,0.,12.0
1979-07-30 01:17:26.170 ,0,1,0.,12.0,0.,12.0,0.,12.0,0.,12.0
1979-07-30 01:17:38.170 ,0,0,0.,12.0,0.,12.0,0.,12.0,0.,12.0
1979-07-30 01:17:50.170 ,0,0,0.,12.0,0.,12.0,0.,12.0,0.,12.0
1979-07-30 01:18:02.170 ,0,0,0.,12.0,0.,12.0,0.,12.0,0.,12.0
1979-07-30 01:18:14.170 ,0,0,0.,12.0,0.,12.0,0.,12.0,0.,12.0
1979-07-30 01:18:26.170 ,5,1,0.,12.0,0.,12.0,0.,12.0,0.,12.0
1979-07-30 01:18:38.170 ,5,1,0.,12.0,0.,12.0,0.,12.0,0.,12.0
1979-07-30 01:18:50.170 ,5,0,0.,12.0,0.,12.0,0.,12.0,0.,12.0
1979-07-30 01:19:02.170 ,5,0,0.,12.0,0.,12.0,0.,12.0,0.,12.0
1979-07-30 01:19:14.170 ,4,1,0.,12.0,0.,12.0,0.,12.0,0.,12.0
1979-07-30 01:19:26.170 ,4,1,0.,12.0,0.,12.0,0.,12.0,0.,12.0
1979-07-30 01:19:38.170 ,4,0,0.,12.0,0.,12.0,0.,12.0,0.,12.0
1979-07-30 01:19:50.170 ,4,0,0.,12.0,0.,12.0,0.,12.0,0.,12.0
1979-07-30 01:20:02.170 ,3,1,0.,12.0,0.,12.0,0.,12.0,0.,12.0
1979-07-30 01:20:14.170 ,3,1,0.,12.0,0.,12.0,0.,12.0,0.,12.0
1979-07-30 01:20:26.170 ,3,0,0.,12.0,0.,12.0,0.,12.0,0.,12.0
1979-07-30 01:20:38.170 ,3,0,0.,12.0,0.,12.0,0.,12.0,0.,12.0
1979-07-30 01:20:50.170 ,2,1,0.,12.0,0.,12.0,0.,12.0,0.,12.0
1979-07-30 01:21:02.170 ,2,1,0.,12.0,0.,12.0,0.,12.0,0.,12.0
1979-07-30 01:21:14.170 ,2,0,0.,12.0,0.,12.0,0.,12.0,0.,12.0
1979-07-30 01:21:26.170 ,2,0,0.,12.0,0.,12.0,0.,12.0,0.,12.0
1979-07-30 01:21:38.170 ,1,1,0.,12.0,0.,12.0,0.,12.0,0.,12.0
1979-07-30 01:21:50.170 ,1,1,0.,12.0,0.,12.0,0.,12.0,0.,12.0
1979-07-30 01:22:02.170 ,1,0,0.,12.0,0.,12.0,0.,12.0,0.,12.0
1979-07-30 01:22:14.170 ,1,0,0.,12.0,0.,12.0,0.,12.0,0.,12.0
1979-07-30 01:22:26.170 ,0,1,0.,12.0,0.,12.0,0.,12.0,0.,12.0
1979-07-30 01:22:38.170 ,0,1,0.,12.0,0.,12.0,0.,12.0,0.,12.0
1979-07-30 01:22:50.170 ,0,0,0.,12.0,0.,12.0,0.,12.0,0.,12.0
1979-07-30 01:23:02.170 ,0,0,0.,12.0,0.,12.0,0.,12.0,0.,12.0
1979-07-30 01:23:14.170 ,0,1,0.,12.0,0.,12.0,0.,12.0,0.,12.0
1979-07-30 01:23:26.170 ,0,1,0.,12.0,0.,12.0,0.,12.0,0.,12.0
1979-07-30 01:23:38.170 ,0,0,0.,12.0,0.,12.0,0.,12.0,0.,12.0
1979-07-30 01:23:50.170 ,0,0,0.,12.0,0.,12.0,0.,12.0,0.,12.0
1979-07-30 01:24:02.170 ,1,1,0.,12.0,0.,12.0,0.,12.0,0.,12.0
1979-07-30 01:24:14.170 ,1,1,0.,12.0,0.,12.0,0.,12.0,0.,12.0
1979-07-30 01:24:26.170 ,1,0,0.,12.0,0.,12.0,0.,12.0,0.,12.0
1979-07-30 01:24:38.170 ,1,0,0.,12.0,0.,12.0,0.,12.0,0.,12.0
1979-07-30 01:24:50.170 ,2,1,0.,12.0,0.,12.0,0.,12.0,0.,12.0
1979-07-30 01:25:02.170 ,2,1,0.,12.0,0.,12.0,0.,12.0,0.,12.0
1979-07-30 01:25:14.170 ,2,0,0.,12.0,0.,12.0,0.,12.0,0.,12.0
1979-07-30 01:25:26.170 ,2,0,0.,12.0,0.,12.0,0.,12.0,0.,12.0
1979-07-30 01:25:38.170 ,3,1,0.,12.0,0.,12.0,0.,12.0,0.,12.0
1979-07-30 01:25:50.170 ,3,1,0.,12.0,0.,12.0,0.,12.0,0.,12.0
1979-07-30 01:26:02.170 ,3,0,0.,12.0,0.,12.0,0.,12.0,0.,12.0
1979-07-30 01:26:14.170 ,3,0,0.,12.0,0.,12.0,0.,12.0,0.,12.0
1979-07-30 01:26:26.170 ,4,1,0.,12.0,0.,12.0,0.,12.0,0.,12.0
1979-07-30 01:26:38.170 ,4,1,0.,12.0,0.,12.0,0.,12.0,0.,12.0
1979-07-30 01:26:50.170 ,4,0,0.,12.0,0.,12.0,0.,12.0,0.,12.0
1979-07-30 01:27:02.170 ,4,0,0.,12.0,0.,12.0,0.,12.0,0.,12.0
1979-07-30 01:27:14.170 ,5,1,0.,12.0,0.,12.0,0.,12.0,0.,12.0
1979-07-30 01:27:26.170 ,5,1,0.,12.0,0.,12.0,0.,12.0,0.,12.0
1979-07-30 01:27:38.170 ,5,0,0.,12.0,0.,12.0,0.,12.0,0.,12.0
1979-07-30 01:27:50.170 ,5,0,0.,12.0,0.,12.0,0.,12.0,0.,12.0
1979-07-30 01:28:02.170 ,6,1,0.,12.0,0.,12.0,0.,12.0,0.,12.0
1979-07-30 01:28:14.170 ,6,1,0.,12.0,0.,12.0,0.,12.0,0.,12.0
1979-07-30 01:28:26.170 ,6,0,0.,12.0,0.,12.0,0.,12.0,0.,12.0
1979-07-30 01:28:38.170 ,6,0,0.,12.0,0.,12.0,0.,12.0,0.,12.0
1979-07-30 01:28:50.170 ,7,1,0.,12.0,0.,12.0,0.,12.0,0.,12.0
1979-07-30 01:29:02.170 ,7,1,0.,12.0,0.,12.0,0.,12.0,0.,12.0
1979-07-30 01:29:14.170 ,7,0,0.,12.0,0.,12.0,0.,12.0,0.,12.0
1979-07-30 01:29:26.170 ,7,0,0.,12.0,0.,12.0,0.,12.0,0.,12.0
1979-07-30 01:29:38.170 ,7,1,0.,12.0,0.,12.0,0.,12.0,0.,12.0
1979-07-30 01:29:50.170 ,7,1,0.,12.0,0.,12.0,0.,12.0,0.,12.0
1979-07-30 01:30:02.170 ,7,0,0.,12.0,0.,12.0,0.,12.0,0.,12.0
1979-07-30 01:30:14.170 ,7,0,0.,12.0,0.,12.0,0.,12.0,0.,12.0
1979-07-30 01:30:26.170 ,6,1,0.,12.0,0.,12.0,0.,12.0,0.,12.0
1979-07-30 01:30:38.170 ,6,1,0.,12.0,0.,12.0,0.,12.0,0.,12.0
1979-07-30 01:30:50.170 ,6,0,0.,12.0,0.,12.0,0.,12.0,0.,12.0
1979-07-30 01:31:02.170 ,6,0,0.,12.0,0.,12.0,0.,12.0,0.,12.0
1979-07-30 01:31:14.170 ,5,1,0.,12.0,0.,12.0,0.,12.0,0.,12.0
1979-07-30 01:31:26.170 ,5,1,0.,12.0,0.,12.0,0.,12.0,0.,12.0
1979-07-30 01:31:38.170 ,5,0,0.,12.0,0.,12.0,0.,12.0,0.,12.0
1979-07-30 01:31:50.170 ,5,0,0.,12.0,0.,12.0,0.,12.0,0.,12.0
1979-07-30 01:32:02.170 ,4,1,0.,12.0,0.,12.0,0.,12.0,0.,12.0
1979-07-30 01:32:14.170 ,4,1,0.,12.0,0.,12.0,0.,12.0,0.,12.0
1979-07-30 01:32:26.170 ,4,0,0.,12.0,0.,12.0,0.,12.0,0.,12.0
1979-07-30 01:32:38.170 ,4,0,0.,12.0,0.,12.0,0.,12.0,0.,12.0
1979-07-30 01:32:50.170 ,3,1,0.,12.0,0.,12.0,0.,12.0,0.,12.0
1979-07-30 01:33:02.170 ,3,1,0.,12.0,0.,12.0,0.,12.0,0.,12.0
1979-07-30 01:33:14.170 ,3,0,0.,12.0,0.,12.0,0.,12.0,0.,12.0
1979-07-30 01:33:26.170 ,3,0,0.,12.0,0.,12.0,0.,12.0,0.,12.0
1979-07-30 01:33:38.170 ,2,1,0.,12.0,0.,12.0,0.,12.0,0.,12.0
1979-07-30 01:33:50.170 ,2,1,0.,12.0,0.,12.0,0.,12.0,0.,12.0
1979-07-30 01:34:02.170 ,2,0,0.,12.0,0.,12.0,0.,12.0,0.,12.0
1979-07-30 01:34:14.170 ,2,0,0.,12.0,0.,12.0,0.,12.0,0.,12.0
1979-07-30 01:34:26.170 ,1,1,0.,12.0,0.,12.0,0.,12.0,0.,12.0
1979-07-30 01:34:38.170 ,1,1,0.,12.0,0.,12.0,0.,12.0,0.,12.0
1979-07-30 01:34:50.170 ,1,0,0.,12.0,0.,12.0,0.,12.0,0.,12.0
1979-07-30 01:35:02.170 ,1,0,0.,12.0,0.,12.0,0.,12.0,0.,12.0
1979-07-30 01:35:14.170 ,0,1,0.,12.0,0.,12.0,0.,12.0,0.,12.0
1979-07-30 01:35:26.170 ,0,1,0.,12.0,0.,12.0,0.,12.0,0.,12.0
1979-07-30 01:35:38.170 ,0,0,0.,12.0,0.,12.0,0.,12.0,0.,12.0
1979-07-30 01:35:50.170 ,0,0,0.,12.0,0.,12.0,0.,12.0,0.,12.0
1979-07-30 01:36:02.170 ,0,1,0.,12.0,0.,12.0,0.,12.0,0.,12.0
1979-07-30 01:36:14.170 ,0,1,0.,12.0,0.,12.0,0.,12.0,0.,12.0
1979-07-30 01:36:26.170 ,0,0,0.,12.0,0.,12.0,0.,12.0,0.,12.0
1979-07-30 01:36:38.170 ,0,0,0.,12.0,0.,12.0,0.,12.0,0.,12.0
1979-07-30 01:36:50.170 ,1,1,0.,12.0,0.,12.0,0.,12.0,0.,12.0
1979-07-30 01:37:02.170 ,1,1,0.,12.0,0.,12.0,0.,12.0,0.,12.0
1979-07-30 01:37:14.170 ,1,0,0.,12.0,0.,12.0,0.,12.0,0.,12.0
1979-07-30 01:37:26.170 ,1,0,0.,12.0,0.,12.0,0.,12.0,0.,12.0
1979-07-30 01:37:38.170 ,2,1,0.,12.0,0.,12.0,0.,12.0,0.,12.0
1979-07-30 01:37:50.170 ,2,1,0.,12.0,0.,12.0,0.,12.0,0.,12.0
1979-07-30 01:38:02.170 ,2,0,0.,12.0,0.,12.0,0.,12.0,0.,12.0
1979-07-30 01:38:14.170 ,2,0,0.,12.0,0.,12.0,0.,12.0,0.,12.0
1979-07-30 01:38:26.170 ,3,1,0.,12.0,0.,12.0,0.,12.0,0.,12.0
1979-07-30 01:38:38.170 ,3,1,0.,12.0,0.,12.0,0.,12.0,0.,12.0
1979-07-30 01:38:50.170 ,3,0,0.,12.0,0.,12.0,0.,12.0,0.,12.0
1979-07-30 01:39:02.170 ,3,0,0.,12.0,0.,12.0,0.,12.0,0.,12.0
1979-07-30 01:39:14.170 ,4,1,0.,12.0,0.,12.0,0.,12.0,0.,12.0
1979-07-30 01:39:26.170 ,4,1,0.,12.0,0.,12.0,0.,12.0,0.,12.0
1979-07-30 01:39:38.170 ,4,0,0.,12.0,0.,12.0,0.,12.0,0.,12.0
1979-07-30 01:39:50.170 ,4,0,0.,12.0,0.,12.0,0.,12.0,0.,12.0
1979-07-30 01:40:02.170 ,5,1,0.,12.0,0.,12.0,0.,12.0,0.,12.0
1979-07-30 01:40:14.170 ,5,1,0.,12.0,0.,12.0,0.,12.0,0.,12.0
1979-07-30 01:40:26.170 ,5,0,0.,12.0,0.,12.0,0.,12.0,0.,12.0
1979-07-30 01:40:38.170 ,5,0,0.,12.0,0.,12.0,0.,12.0,0.,12.0
1979-07-30 01:40:50.170 ,6,1,0.,12.0,0.,12.0,0.,12.0,0.,12.0
1979-07-30 01:41:02.170 ,6,1,0.,12.0,0.,12.0,0.,12.0,0.,12.0
1979-07-30 01:41:14.170 ,6,0,0.,12.0,0.,12.0,0.,12.0,0.,12.0
1979-07-30 01:41:26.170 ,6,0,0.,12.0,0.,12.0,0.,12.0,0.,12.0
1979-07-30 01:41:38.170 ,7,1,0.,12.0,0.,12.0,0.,12.0,0.,12.0
1979-07-30 01:41:50.170 ,7,1,0.,12.0,0.,12.0,0.,12.0,0.,12.0
1979-07-30 01:42:02.170 ,7,0,0.,12.0,0.,12.0,0.,12.0,0.,12.0
1979-07-30 01:42:14.170 ,7,0,0.,12.0,0.,12.0,0.,12.0,0.,12.0
1979-07-30 01:42:26.170 ,7,1,0.,12.0,0.,12.0,0.,12.0,0.,12.0
1979-07-30 01:42:38.170 ,7,1,0.,12.0,0.,12.0,0.,12.0,0.,12.0
1979-07-30 01:42:50.170 ,7,0,0.,12.0,0.,12.0,0.,12.0,0.,12.0
1979-07-30 01:43:02.170 ,7,0,0.,12.0,0.,12.0,0.,12.0,0.,12.0
1979-07-30 01:43:14.170 ,6,1,0.,12.0,0.,12.0,0.,12.0,0.,12.0
1979-07-30 01:43:26.170 ,6,1,0.,12.0,0.,12.0,0.,12.0,0.,12.0
1979-07-30 01:43:38.170 ,6,0,0.,12.0,0.,12.0,0.,12.0,0.,12.0
1979-07-30 01:43:50.170 ,6,0,0.,12.0,0.,12.0,0.,12.0,0.,12.0
1979-07-30 01:44:02.170 ,5,1,0.,12.0,0.,12.0,0.,12.0,0.,12.0
1979-07-30 01:44:14.170 ,5,1,0.,12.0,0.,12.0,0.,12.0,0.,12.0
1979-07-30 01:44:26.170 ,5,0,0.,12.0,0.,12.0,0.,12.0,0.,12.0
1979-07-30 01:44:38.170 ,5,0,0.,12.0,0.,12.0,0.,12.0,0.,12.0
1979-07-30 01:44:50.170 ,4,1,0.,12.0,0.,12.0,0.,12.0,0.,12.0
1979-07-30 01:45:02.170 ,4,1,0.,12.0,0.,12.0,0.,12.0,0.,12.0
1979-07-30 01:45:14.170 ,0,0,,0,,0,,0,,0
1979-07-30 01:45:26.170 ,0,0,8192.,12.0,31.,12.0,8704.,12.0,1998848.,12.0
1979-07-30 01:45:14.170 ,0,0,0.,12.0,0.,12.0,0.,12.0,0.,12.0
1979-07-30 01:45:26.170 ,0,0,0.,12.0,0.,12.0,0.,12.0,0.,12.0
1979-07-30 01:45:38.170 ,3,1,0.,12.0,0.,12.0,0.,12.0,0.,12.0
1979-07-30 01:45:50.170 ,3,1,0.,12.0,0.,12.0,0.,12.0,0.,12.0
1979-07-30 01:46:02.170 ,3,0,0.,12.0,0.,12.0,0.,12.0,0.,12.0
1979-07-30 01:46:14.170 ,3,0,0.,12.0,0.,12.0,0.,12.0,0.,12.0
1979-07-30 01:46:26.170 ,2,1,0.,12.0,0.,12.0,0.,12.0,0.,12.0
1979-07-30 01:46:38.170 ,2,1,0.,12.0,0.,12.0,0.,12.0,0.,12.0
1979-07-30 01:46:50.170 ,2,0,0.,12.0,0.,12.0,0.,12.0,0.,12.0
1979-07-30 01:47:02.170 ,2,0,0.,12.0,0.,12.0,0.,12.0,0.,12.0
1979-07-30 01:47:14.170 ,1,1,0.,12.0,0.,12.0,0.,12.0,0.,12.0
1979-07-30 01:47:26.170 ,1,1,0.,12.0,0.,12.0,0.,12.0,0.,12.0
1979-07-30 01:47:38.170 ,1,0,0.,12.0,0.,12.0,0.,12.0,0.,12.0
1979-07-30 01:47:50.170 ,1,0,0.,12.0,0.,12.0,0.,12.0,0.,12.0
1979-07-30 01:48:02.170 ,0,1,0.,12.0,0.,12.0,0.,12.0,0.,12.0
1979-07-30 01:48:14.170 ,0,1,0.,12.0,0.,12.0,0.,12.0,0.,12.0
1979-07-30 01:48:26.170 ,0,0,0.,12.0,0.,12.0,0.,12.0,0.,12.0
1979-07-30 01:48:38.170 ,0,0,0.,12.0,0.,12.0,0.,12.0,0.,12.0
1979-07-30 01:48:50.170 ,0,1,0.,12.0,0.,12.0,0.,12.0,0.,12.0
1979-07-30 01:49:02.170 ,0,1,0.,12.0,0.,12.0,0.,12.0,0.,12.0
1979-07-30 01:49:14.170 ,0,0,0.,12.0,0.,12.0,0.,12.0,0.,12.0
1979-07-30 01:49:26.170 ,0,0,0.,12.0,0.,12.0,0.,12.0,0.,12.0
1979-07-30 01:49:38.170 ,1,1,0.,12.0,0.,12.0,0.,12.0,0.,12.0
1979-07-30 01:49:50.170 ,1,1,0.,12.0,0.,12.0,0.,12.0,0.,12.0
1979-07-30 01:50:02.170 ,1,0,0.,12.0,0.,12.0,0.,12.0,0.,12.0
1979-07-30 01:50:14.170 ,1,0,0.,12.0,0.,12.0,0.,12.0,0.,12.0
1979-07-30 01:50:26.170 ,2,1,0.,12.0,0.,12.0,0.,12.0,0.,12.0
1979-07-30 01:50:38.170 ,2,1,0.,12.0,0.,12.0,0.,12.0,0.,12.0
1979-07-30 01:50:50.170 ,2,0,0.,12.0,0.,12.0,0.,12.0,0.,12.0
1979-07-30 01:51:02.170 ,2,0,0.,12.0,0.,12.0,0.,12.0,0.,12.0
1979-07-30 01:51:14.170 ,3,1,0.,12.0,0.,12.0,0.,12.0,0.,12.0
1979-07-30 01:51:26.170 ,3,1,0.,12.0,0.,12.0,0.,12.0,0.,12.0
1979-07-30 01:51:38.170 ,3,0,0.,12.0,0.,12.0,0.,12.0,0.,12.0
1979-07-30 01:51:50.170 ,3,0,0.,12.0,0.,12.0,0.,12.0,0.,12.0
1979-07-30 01:52:02.170 ,4,1,0.,12.0,0.,12.0,0.,12.0,0.,12.0
1979-07-30 01:52:14.170 ,4,1,0.,12.0,0.,12.0,0.,12.0,0.,12.0
1979-07-30 01:52:26.170 ,4,0,0.,12.0,0.,12.0,0.,12.0,0.,12.0
1979-07-30 01:52:38.170 ,4,0,0.,12.0,0.,12.0,0.,12.0,0.,12.0
1979-07-30 01:52:50.170 ,5,1,0.,12.0,0.,12.0,0.,12.0,0.,12.0
1979-07-30 01:53:02.170 ,5,1,0.,12.0,0.,12.0,0.,12.0,0.,12.0
1979-07-30 01:53:14.170 ,5,0,0.,12.0,0.,12.0,0.,12.0,0.,12.0
1979-07-30 01:53:26.170 ,5,0,0.,12.0,0.,12.0,0.,12.0,0.,12.0
1979-07-30 01:53:38.170 ,6,1,0.,12.0,0.,12.0,0.,12.0,0.,12.0
1979-07-30 01:53:50.170 ,6,1,0.,12.0,0.,12.0,0.,12.0,0.,12.0
1979-07-30 01:54:02.170 ,6,0,0.,12.0,0.,12.0,0.,12.0,0.,12.0
1979-07-30 01:54:14.170 ,6,0,0.,12.0,0.,12.0,0.,12.0,0.,12.0
1979-07-30 01:54:26.170 ,7,0,0.,12.0,0.,12.0,0.,12.0,0.,12.0
1979-07-30 01:54:38.170 ,7,0,0.,12.0,0.,12.0,0.,12.0,0.,12.0
1979-07-30 01:54:50.170 ,7,0,0.,12.0,0.,12.0,0.,12.0,0.,12.0
1979-07-30 01:55:02.170 ,7,0,0.,12.0,0.,12.0,0.,12.0,0.,12.0
1979-07-30 01:55:14.170 ,4,1,0.,12.0,0.,12.0,0.,12.0,0.,12.0
1979-07-30 01:55:26.170 ,4,1,0.,12.0,0.,12.0,0.,12.0,0.,12.0
1979-07-30 01:55:38.170 ,0,1,0.,12.0,0.,12.0,0.,12.0,0.,12.0
1979-07-30 01:55:50.170 ,0,1,0.,12.0,0.,12.0,0.,12.0,0.,12.0
1979-07-30 01:56:02.170 ,3,1,0.,12.0,0.,12.0,0.,12.0,0.,12.0
1979-07-30 01:56:14.170 ,3,1,0.,12.0,0.,12.0,0.,12.0,0.,12.0
1979-07-30 01:56:26.170 ,7,1,0.,12.0,0.,12.0,0.,12.0,0.,12.0
1979-07-30 01:56:38.170 ,7,1,0.,12.0,0.,12.0,0.,12.0,0.,12.0
1979-07-30 01:56:50.170 ,4,1,0.,12.0,0.,12.0,0.,12.0,0.,12.0
1979-07-30 01:57:02.170 ,4,1,0.,12.0,0.,12.0,0.,12.0,0.,12.0
1979-07-30 01:57:14.170 ,0,1,0.,12.0,0.,12.0,0.,12.0,0.,12.0
1979-07-30 01:57:26.170 ,0,1,0.,12.0,0.,12.0,0.,12.0,0.,12.0
1979-07-30 01:57:38.170 ,3,1,0.,12.0,0.,12.0,0.,12.0,0.,12.0
1979-07-30 01:57:50.170 ,3,1,0.,12.0,0.,12.0,0.,12.0,0.,12.0
1979-07-30 01:58:02.170 ,7,1,0.,12.0,0.,12.0,0.,12.0,0.,12.0
1979-07-30 01:58:14.170 ,7,1,0.,12.0,0.,12.0,0.,12.0,0.,12.0
1979-07-30 01:58:26.170 ,4,1,0.,12.0,0.,12.0,0.,12.0,0.,12.0
1979-07-30 01:58:38.170 ,4,1,0.,12.0,0.,12.0,0.,12.0,0.,12.0
1979-07-30 01:58:50.170 ,0,1,0.,12.0,0.,12.0,0.,12.0,0.,12.0
1979-07-30 01:59:02.170 ,0,1,0.,12.0,0.,12.0,0.,12.0,0.,12.0
1979-07-30 01:59:14.170 ,3,1,0.,12.0,0.,12.0,0.,12.0,0.,12.0
1979-07-30 01:59:26.170 ,3,1,0.,12.0,0.,12.0,0.,12.0,0.,12.0
1979-07-30 01:59:38.170 ,7,1,0.,12.0,0.,12.0,0.,12.0,0.,12.0
1979-07-30 01:59:50.170 ,7,1,0.,12.0,0.,12.0,0.,12.0,0.,12.0
1979-07-30 02:00:02.170 ,4,1,0.,12.0,0.,12.0,0.,12.0,0.,12.0
1979-07-30 02:00:14.170 ,4,1,0.,12.0,0.,12.0,0.,12.0,0.,12.0
1979-07-30 02:00:26.170 ,0,1,0.,12.0,0.,12.0,0.,12.0,0.,12.0
1979-07-30 02:00:38.170 ,0,1,0.,12.0,0.,12.0,0.,12.0,0.,12.0
1979-07-30 02:00:50.170 ,3,1,0.,12.0,0.,12.0,0.,12.0,0.,12.0
1979-07-30 02:01:02.170 ,3,1,0.,12.0,0.,12.0,0.,12.0,0.,12.0
1979-07-30 02:01:14.170 ,7,1,0.,12.0,0.,12.0,0.,12.0,0.,12.0
1979-07-30 02:01:26.170 ,7,1,0.,12.0,0.,12.0,0.,12.0,0.,12.0
1979-07-30 02:01:38.170 ,4,1,0.,12.0,0.,12.0,0.,12.0,0.,12.0
1979-07-30 02:01:50.170 ,4,1,0.,12.0,0.,12.0,0.,12.0,0.,12.0
1979-07-30 02:02:02.170 ,0,1,0.,12.0,0.,12.0,0.,12.0,0.,12.0
1979-07-30 02:02:14.170 ,0,1,0.,12.0,0.,12.0,0.,12.0,0.,12.0
1979-07-30 02:02:26.170 ,3,1,0.,12.0,0.,12.0,0.,12.0,0.,12.0
1979-07-30 02:02:38.170 ,3,1,0.,12.0,0.,12.0,0.,12.0,0.,12.0
1979-07-30 02:02:50.170 ,7,1,0.,12.0,0.,12.0,0.,12.0,0.,12.0
1979-07-30 02:03:02.170 ,7,1,0.,12.0,0.,12.0,0.,12.0,0.,12.0
1979-07-30 02:03:14.170 ,4,1,0.,12.0,0.,12.0,0.,12.0,0.,12.0
1979-07-30 02:03:26.170 ,4,1,0.,12.0,0.,12.0,0.,12.0,0.,12.0
1979-07-30 02:03:38.170 ,0,1,0.,12.0,0.,12.0,0.,12.0,0.,12.0
1979-07-30 02:03:50.170 ,0,1,0.,12.0,0.,12.0,0.,12.0,0.,12.0
1979-07-30 02:04:02.170 ,3,1,0.,12.0,0.,12.0,0.,12.0,0.,12.0
1979-07-30 02:04:14.170 ,3,1,0.,12.0,0.,12.0,0.,12.0,0.,12.0
1979-07-30 02:04:26.170 ,7,1,0.,12.0,0.,12.0,0.,12.0,0.,12.0
1979-07-30 02:04:38.170 ,7,1,0.,12.0,0.,12.0,0.,12.0,0.,12.0
1979-07-30 02:04:50.170 ,4,1,0.,12.0,0.,12.0,0.,12.0,0.,12.0
1979-07-30 02:05:02.170 ,4,1,0.,12.0,0.,12.0,0.,12.0,0.,12.0
1979-07-30 02:05:14.170 ,0,1,0.,12.0,0.,12.0,0.,12.0,0.,12.0
1979-07-30 02:05:26.170 ,0,1,0.,12.0,0.,12.0,0.,12.0,0.,12.0
1979-07-30 02:05:38.170 ,0,0,0.,12.0,0.,12.0,0.,12.0,0.,12.0
1979-07-30 02:05:50.170 ,0,0,0.,12.0,0.,12.0,0.,12.0,0.,12.0
1979-07-30 02:06:02.170 ,0,0,0.,12.0,0.,12.0,0.,12.0,0.,12.0